Regional Weather Roundup
Issued by NWS

Home | Current Version | Previous Version | Graphics & Text | Print | Product List | Glossary On
Versions: 1 2 3 4 5 6 7 8 9 10 11 12 13 14 15 16 17 18 19 20 21 22 23 24 25 26 27 28 29 30 31 32 33 34 35 36 37 38 39 40 41 42 43 44 45 46 47 48 49 50
000
ASUS43 KOAX 261310
RWRNE

WEATHER ROUNDUP FOR NEBRASKA
NATIONAL WEATHER SERVICE OMAHA NE
700 AM CST WED NOV 26 2014

NOTES: SATELLITE DATA IS BEING USED TO AUGMENT CLOUD COVER ABOVE
       12000 FEET.
       "FAIR" INDICATES FEW OR NO CLOUDS BELOW 12,000 FEET WITH NO
       SIGNIFICANT WEATHER AND/OR OBSTRUCTIONS TO VISIBILITY.

  * THESE STATIONS DO NOT REPORT WEATHER SUCH AS RAIN...SNOW OR FOG.

NEZ001>004-019>022-054>056-261400-
NEBRASKA PANHANDLE

CITY           SKY/WX    TMP DP  RH WIND       PRES   REMARKS
SCOTTSBLUFF    CLOUDY    30  24  78 NW8       30.19R WCI  22
ALLIANCE       CLOUDY    25  20  81 N13       30.16S WCI  14
CHADRON        CLOUDY    40  20  44 NE6       30.20S
KIMBALL        LGT SNOW  26  25  95 NW9       30.14S WCI  17
SIDNEY         CLOUDY    28  24  85 NW8       30.17R WCI  20
$$

NEZ057>060-069>072-079>082-261400-
SOUTHWEST NEBRASKA

CITY           SKY/WX    TMP DP  RH WIND       PRES   REMARKS
NORTH PLATTE   CLOUDY    28  19  69 NW9G21    30.15R WCI  19
IMPERIAL       CLOUDY    34  21  59 NW17G23   30.17R WCI  23
LEXINGTON      CLOUDY    32  22  65 NW23G33   30.12R WCI  19
MCCOOK         CLOUDY    36  21  54 N24G31    30.13R WCI  24
OGALLALA       CLOUDY    31  22  71 N17G23    30.17R WCI  19
$$

NEZ005>010-023>029-035>040-094-261400-
NORTH CENTRAL NEBRASKA

CITY           SKY/WX    TMP DP  RH WIND       PRES   REMARKS
VALENTINE      CLOUDY    22  19  89 N21G28    30.18R WCI   6
AINSWORTH      CLOUDY    22  19  89 N24G32    30.15R WCI   6
BROKEN BOW     CLOUDY    29  21  72 N28G38    30.08R WCI  14
O`NEILL        CLOUDY    24  23  96 NW28G33   30.08R FOG     WCI   8
ORD            CLOUDY    27  21  78 NW29G37   30.06R WCI  11
THEDFORD       CLOUDY    27  21  77 N21G29    30.15R WCI  14
$$

NEZ041-046>049-061>064-073>077-083>087-261400-
SOUTH CENTRAL NEBRASKA

CITY           SKY/WX    TMP DP  RH WIND       PRES   REMARKS
GRAND ISLAND   CLOUDY    32  24  72 NW32G46   30.04R WCI  17
AURORA         MOCLDY    34  25  70 NW28G36   30.01R WCI  20
HASTINGS       CLOUDY    34  22  61 N28G33    30.02R WCI  21
HEBRON         CLOUDY    38  25  59 NW17      30.00R WCI  29
HOLDREGE       MOCLDY    32  20  60 NW23G29   30.08R WCI  19
KEARNEY *      CLOUDY    32  19  59 W23G30    30.07R WCI  19
YORK           MOCLDY    32  25  74 N20G35    29.99R WCI  20
$$

NEZ011>018-030>034-042>045-261400-
NORTHEAST NEBRASKA

CITY           SKY/WX    TMP DP  RH WIND       PRES   REMARKS
NORFOLK        CLOUDY    33  30  88 NW23G30   29.96R WCI  21
ALBION         CLOUDY    30  25  81 NW26G37   29.99R WCI  15
BLAIR          CLOUDY    38  33  84 NW18G29   29.87R WCI  28
COLUMBUS *     CLOUDY    34  25  69 NW23G31   29.98R WCI  22
FREMONT        CLOUDY    37  34  87 NW24      29.92R WCI  26
TEKAMAH        CLOUDY    38  34  85 NW22      29.89R WCI  27
WAYNE          CLOUDY    34  32  91 NW18G29   29.93R WCI  23
$$

NEZ050>053-065>068-078-088>093-261400-
SOUTHEAST NEBRASKA

CITY           SKY/WX    TMP DP  RH WIND       PRES   REMARKS
LINCOLN        CLOUDY    38  30  73 NW18G28   29.95R WCI  28
OMAHA EPPLEY   LGT RAIN  39  34  82 NW18G31   29.89R WCI  30
BEATRICE       CLOUDY    35  29  80 W14       29.96R WCI  25
FALLS CITY     CLOUDY    37  31  78 W15       29.92R WCI  28
NEBRASKA CITY  CLOUDY    37  31  77 NW15      29.89R WCI  28
PLATTSMOUTH    CLOUDY    37  32  82 NW16G23   29.88R WCI  28
$$

NEZ044-045-051>053-067-261400-
OMAHA AREA

CITY           SKY/WX    TMP DP  RH WIND       PRES   REMARKS
OMAHA EPPLEY   LGT RAIN  39  34  82 NW18G31   29.89R WCI  30
BLAIR          CLOUDY    38  33  84 NW18G29   29.87R WCI  28
FREMONT        CLOUDY    37  34  87 NW24      29.92R WCI  26
MILLARD        CLOUDY    39  33  81 NW20G28   29.89R WCI  29
OFFUTT AFB     CLOUDY    39  34  81 NW20G31   29.88R WCI  30
PLATTSMOUTH    CLOUDY    37  32  82 NW16G23   29.88R WCI  28
WAHOO          CLOUDY    37  31  82 NW22G35   29.92R WCI  25
$$


USA.gov is the U.S. government's official web portal to all federal, state and local government web resources and services.